This is the latest recevied weather packets stored in our database for station/object OK1VOF-13. If no packets are shown the sender has not sent any weather packets the latest 10 day(s).
| Time | Temp. | Humidity | Pressure | Rain* | Wind** | Luminosity | Snow |
|---|---|---|---|---|---|---|---|
| 1788367909 | 26.11° C | 49% | 1021.5 hPa | 0 mm | - | - | - |
| 1788367610 | 26.11° C | 49% | 1021.5 hPa | 0 mm | - | - | - |
| 1788367013 | 27.22° C | 49% | 1021.5 hPa | 0 mm | - | - | - |
| 1788366714 | 26.67° C | 49% | 1021.5 hPa | 0 mm | - | - | - |
| 1788366415 | 26.67° C | 49% | 1021.5 hPa | 0 mm | - | - | - |
| 1788366116 | 26.67° C | 49% | 1021.4 hPa | 0 mm | - | - | - |
| 1788365817 | 26.67° C | 49% | 1021.5 hPa | 0 mm | - | - | - |
| 1788365519 | 26.11° C | 49% | 1021.5 hPa | 0 mm | - | - | - |
| 1788364921 | 26.67° C | 49% | 1021.7 hPa | 0 mm | - | - | - |
| 1788364616 | 26.67° C | 50% | 1021.8 hPa | 0 mm | - | - | - |
| 1788364323 | 26.67° C | 49% | 1021.7 hPa | 0 mm | - | - | - |
| 1788363719 | 25.56° C | 49% | 1021.8 hPa | 0 mm | - | - | - |
| 1788363420 | 25.56° C | 49% | 1021.8 hPa | 0 mm | - | - | - |
| 1788363128 | 25.56° C | 49% | 1021.8 hPa | 0 mm | - | - | - |
| 1788362830 | 25.56° C | 50% | 1021.8 hPa | 0 mm | - | - | - |
| 1788362525 | 25.56° C | 50% | 1021.8 hPa | 0 mm | - | - | - |
| 1788362225 | 25° C | 50% | 1021.8 hPa | 0 mm | - | - | - |
| 1788361634 | 25.56° C | 51% | 1021.9 hPa | 0 mm | - | - | - |
| 1788361027 | 25° C | 50% | 1022 hPa | 105.41 mm | - | - | - |
| 1788360725 | 25° C | 51% | 1022 hPa | 105.41 mm | - | - | - |
| 1788360426 | 24.44° C | 51% | 1022 hPa | 105.41 mm | - | - | - |
| 1788359524 | 24.44° C | 51% | 1022.1 hPa | 105.41 mm | - | - | - |
| 1788359222 | 24.44° C | 51% | 1022.1 hPa | 105.41 mm | - | - | - |
| 1788358920 | 24.44° C | 51% | 1022.1 hPa | 105.41 mm | - | - | - |
| 1788358316 | 24.44° C | 51% | 1022.1 hPa | 105.41 mm | - | - | - |
* Rain latest hour (hover to see other rain measurements)
** Current wind speed in m/s (hover to see current wind gust speed)